1998-067PN (43638 NORAD) Tracking and Keplerian Element Data

This shows tracking and keplerian element data for the satellite.

Feedback or suggestion? Click here.




ElementValue
Catalog43638
Name1998-067PN
Epoch Orbit680
Epoch Day323.4260809
Epoch Year2018
RAAN324.8508
Inclination51.6397
Eccentricity0.0003471
Argument of Perigee35.5541
Mean Anonmoly324.5681
Mean Motion15.54983047
Decay Rate6.566E-05
L11 43638U 98067PN 18323.42608090 .00006566 00000-0 10314-3 0 9995
L22 43638 51.6397 324.8508 0003471 35.5541 324.5681 15.54983047 6804

Live tracking and technical data element details for 1998-067PN (NORAD 43638). 1998-067PN can be tracked NOW for your location showing map with azimuth and elevation plus other details from your city location.

Track the satellite on the map from your city or location and see movement details for azimuth, elevation, latitude, longitude, range, height, and movement on the map or in text.







IsCatalogInMostPopularTable: catalog: 43638, numindb: 17
Update: records affected: 1



GetName: 43638 1998-067PN

Hit Count: updated at: Tue, 20 Nov 2018 11:23:31 GMT